Meteo Giornale » Osservazioni meteo Romania » Baia Mare
ore: 00:00 - Osservazioni Meteo Baia Mare
Lat. 47° 40' N Lon. 23° 35' E Alt. 218 metri s.l.m.
18 °C
Sereno
Temp. 24 Ore
18 °C
28 °C
Nord-Est
7.4 Km/h
Dew point 15 °C
Umidità 82 %
Visibilità 10 Km
Il sole sorge alle ore 06:45
Il sole tramonta alle ore 20:05
| Data e Ora | Cielo e Fenomeni | T °C | DP °C | Um. % | Pres. hPa | Vis. km | Vento km/h | |
|---|---|---|---|---|---|---|---|---|
| Oggi h: 00:00 | Sereno | 18 | 15 | 82 | 1019 | 10 | NE 7.4 | |
| Ieri h: 23:30 | Sereno | 19 | 15 | 77 | 1018 | 10 | NE 7.4 | |
| Ieri h: 23:00 | Sereno | 19 | 15 | 77 | 1018 | 10 | N 3.7 | |
| Ieri h: 22:30 | Sereno | 19 | 15 | 77 | 1018 | 10 | N 3.7 | |
| Ieri h: 22:00 | Sereno | 20 | 15 | 72 | 1018 | 10 | NE 7.4 | |
| Ieri h: 21:30 | Sereno | 21 | 16 | 73 | 1018 | 10 | N 5.5 | |
| Ieri h: 21:00 | Sereno | 22 | 16 | 68 | 1018 | 10 | N/NE 7.4 | |
| Ieri h: 20:30 | Sereno | 22 | 16 | 68 | 1017 | 10 | N/NE 7.4 | |
| Ieri h: 20:00 | Sereno | 24 | 16 | 60 | 1017 | 10 | N 7.4 | |
| Ieri h: 19:30 | Poco Nuvoloso | 26 | 15 | 50 | 1017 | 10 | N 5.5 | |
| Ieri h: 19:00 | Poco Nuvoloso | 27 | 15 | 47 | 1017 | 10 | O 7.4 | |
| Ieri h: 18:30 | Poco Nuvoloso | 27 | 15 | 47 | 1017 | 10 | O 9.3 | |
| Ieri h: 18:00 | Poco Nuvoloso | 28 | 15 | 45 | 1017 | 10 | O 9.3 | |
| Ieri h: 17:30 | Nuvoloso | 28 | 15 | 45 | 1017 | 10 | O 9.3 | |
| Ieri h: 17:00 | Nuvoloso | 27 | 16 | 50 | 1017 | 10 | O/SO 7.4 | |
| Ieri h: 16:30 | Nuvoloso | 27 | 16 | 50 | 1017 | 10 | N 7.4 | |
| Ieri h: 16:00 | Nuvoloso | 27 | 17 | 54 | 1017 | 10 | O/SO 7.4 | |
| Ieri h: 15:30 | Nuvoloso | 27 | 16 | 50 | 1017 | 10 | N 5.5 | |
| Ieri h: 14:30 | Nuvoloso | 25 | 17 | 61 | 1018 | 10 | N 7.4 | |
| Ieri h: 14:00 | Nuvoloso | 25 | 17 | 61 | 1018 | 10 | N 3.7 | |
| Ieri h: 13:30 | Nuvoloso | 24 | 17 | 64 | 1018 | 10 | N 3.7 | |
| Ieri h: 13:00 | Nuvoloso | 24 | 17 | 64 | 1018 | 10 | N 5.5 | |
| Ieri h: 12:30 | Molto Nuvoloso | 23 | 17 | 68 | 1018 | 10 | N 5.5 | |
| Ieri h: 12:00 | Nuvoloso | 22 | 18 | 78 | 1018 | 10 | N 5.5 | |
| Ieri h: 11:30 | Molto Nuvoloso | 21 | 18 | 82 | 1018 | 10 | N 5.5 | |
| Ieri h: 11:00 | Nuvoloso | 21 | 18 | 82 | 1018 | 10 | S 7.4 | |
| Ieri h: 10:30 | Nuvoloso | 21 | 18 | 82 | 1018 | 10 | N 3.7 | |
| Ieri h: 10:00 | Poco Nuvoloso | 20 | 18 | 88 | 1017 | 10 | N 5.5 | |
| Ieri h: 09:30 | Nuvoloso | 19 | 18 | 93 | 1017 | 10 | E 14.8 | |
| Ieri h: 09:00 | Pioggia | 19 | 18 | 93 | 1017 | 10 | E/NE 7.4 | |
| Ieri h: 08:30 | Pioggia | 19 | 18 | 93 | 1017 | 10 | E 11.1 | |
| Ieri h: 08:00 | Pioggia | 18 | 18 | 100 | 1018 | 6 | NE 7.4 | |
| Ieri h: 07:30 | Pioggia | 18 | 17 | 93 | 1018 | 8 | E/NE 7.4 | |
| Ieri h: 07:00 | Temporale | 19 | 18 | 93 | 1018 | 6 | N 5.5 | |
| Ieri h: 06:30 | Temporale | 19 | 17 | 88 | 1017 | 2 | N 3.7 | |
| Ieri h: 06:00 | Pioggia | 21 | 16 | 73 | 1016 | 10 | E/NE 9.3 | |
| Ieri h: 05:30 | Sereno | 21 | 15 | 68 | 1015 | 10 | E/SE 9.3 | |
| Ieri h: 05:00 | Sereno | 21 | 13 | 60 | 1014 | 10 | E 11.1 | |
| Ieri h: 04:30 | Sereno | 21 | 15 | 68 | 1014 | 10 | NE 13 | |
| Ieri h: 04:00 | Sereno | 20 | 15 | 72 | 1014 | 10 | E 13 | |
| Ieri h: 03:30 | Sereno | 21 | 15 | 68 | 1014 | 10 | E 11.1 | |
| Ieri h: 03:00 | Sereno | 21 | 14 | 64 | 1014 | 10 | NE 11.1 | |
| Ieri h: 02:30 | Pioggia | 22 | 14 | 60 | 1014 | 10 | NE 11.1 | |
| Ieri h: 02:00 | Sereno | 23 | 12 | 49 | 1015 | 10 | N 7.4 | |
| Ieri h: 01:30 | Sereno | 23 | 12 | 49 | 1014 | 10 | NE 13 | |
| Ieri h: 01:00 | Sereno | 23 | 12 | 49 | 1015 | 10 | S 14.8 | |



